Date,TemperatureHighF,TemperatureAvgF,TemperatureLowF,DewpointHighF,DewpointAvgF,DewpointLowF,HumidityHigh,HumidityAvg,HumidityLow,PressureMaxIn,PressureMinIn,WindSpeedMaxMPH,WindSpeedAvgMPH,GustSpeedMaxMPH,PrecipitationSumIn
2013-8-1,74,65,56,68,54,30,89,70,31,30.04,29.89,7,2,10,0.00
2013-8-2,69,65,62,65,52,36,88,64,38,29.89,29.75,7,2,9,0.43
2013-8-3,74,65,58,66,52,27,90,66,28,29.81,29.71,11,2,14,0.03
2013-8-4,77,65,57,63,58,50,90,79,52,29.79,29.70,9,3,13,0.07
2013-8-5,71,63,55,56,53,48,90,72,51,30.00,29.78,15,6,21,0.00
2013-8-6,74,62,49,59,53,45,90,72,51,30.14,30.00,11,2,14,0.00
2013-8-7,72,62,51,63,55,36,89,77,41,30.19,30.13,7,2,10,0.00
2013-8-8,67,63,59,65,62,58,97,95,93,30.13,30.02,8,3,11,0.37
2013-8-9,69,67,63,68,65,62,96,96,94,30.02,29.69,13,5,16,1.95
2013-8-10,76,40,62,70,-3,-100,96,50,54,29.96,29.70,20,6,25,0.00
2013-8-11,76,65,52,59,54,49,90,70,48,30.02,29.94,10,3,15,0.00
2013-8-12,77,66,55,64,59,45,89,77,57,29.98,29.89,11,3,18,0.00
2013-8-13,74,64,57,68,53,29,88,69,28,29.90,29.69,9,2,13,0.00
2013-8-14,75,66,59,68,44,27,88,49,26,29.83,29.58,11,3,19,0.01
2013-8-15,74,64,54,59,54,50,89,73,46,30.06,29.83,10,4,12,0.00
2013-8-16,75,64,52,63,52,31,89,66,42,30.16,30.05,11,2,16,0.00
2013-8-17,76,64,53,62,52,27,90,64,36,30.25,30.16,9,2,13,0.01
2013-8-18,75,64,52,62,54,28,89,72,38,30.26,30.03,8,2,11,0.00
2013-8-19,82,69,57,67,57,26,89,67,29,30.03,29.85,8,2,12,0.00
2013-8-20,81,70,62,69,63,54,88,78,62,30.06,29.92,9,2,13,0.00
2013-8-21,83,71,60,69,60,32,89,70,35,30.10,29.96,9,3,13,0.00
2013-8-22,79,70,60,70,60,27,88,72,27,29.97,29.74,11,4,15,0.00
2013-8-23,76,69,60,65,58,51,88,69,42,30.11,29.73,13,6,22,0.00
2013-8-24,75,63,51,57,51,44,89,68,40,30.29,30.11,9,2,13,0.00
2013-8-25,75,63,51,60,52,27,89,68,37,30.33,30.14,10,2,12,0.00
2013-8-26,72,65,57,66,57,27,89,78,29,30.13,29.84,10,2,13,0.03
2013-8-27,79,69,60,70,55,26,88,64,26,29.89,29.82,4,1,6,0.00
2013-8-28,76,65,60,69,49,28,89,60,28,29.98,29.87,7,1,8,0.04
2013-8-29,66,63,56,62,56,36,89,80,34,30.09,29.97,8,4,14,0.00
2013-8-30,72,63,53,66,55,30,90,76,41,30.00,29.75,12,3,16,0.00
2013-8-31,76,68,63,72,55,31,89,68,29,29.81,29.75,12,1,15,0.24